owner,sensor,date,latitude,longitude,vertical_datum,sea_water_practical_salinity,qcFlag 
NERRS,ioos:station:NOAA.NERRS:wkbfrwq:1,2019-04-01T00:45:00Z,30.4162,-87.8228,2.4,0.6,1111122 
NERRS,ioos:station:NOAA.NERRS:wkbfrwq:1,2019-04-01T01:45:00Z,30.4162,-87.8228,2.39,1.4,1111122 
NERRS,ioos:station:NOAA.NERRS:wkbfrwq:1,2019-04-01T02:45:00Z,30.4162,-87.8228,2.43,1.4,1111122 
NERRS,ioos:station:NOAA.NERRS:wkbfrwq:1,2019-04-01T03:45:00Z,30.4162,-87.8228,2.43,1.2,1111122 
NERRS,ioos:station:NOAA.NERRS:wkbfrwq:1,2019-04-01T04:45:00Z,30.4162,-87.8228,2.34,0.5,1111122 
NERRS,ioos:station:NOAA.NERRS:wkbfrwq:1,2019-04-01T05:45:00Z,30.4162,-87.8228,2.3,1.0,1111122 
NERRS,ioos:station:NOAA.NERRS:wkbfrwq:1,2019-04-01T06:45:00Z,30.4162,-87.8228,2.29,1.5,1111122 
NERRS,ioos:station:NOAA.NERRS:wkbfrwq:1,2019-04-01T07:45:00Z,30.4162,-87.8228,2.25,0.6,1111122 
NERRS,ioos:station:NOAA.NERRS:wkbfrwq:1,2019-04-01T08:45:00Z,30.4162,-87.8228,2.16,0.3,1111122 
NERRS,ioos:station:NOAA.NERRS:wkbfrwq:1,2019-04-01T09:45:00Z,30.4162,-87.8228,2.1,0.3,1111122 
NERRS,ioos:station:NOAA.NERRS:wkbfrwq:1,2019-04-01T10:45:00Z,30.4162,-87.8228,2.09,1.0,1111122 
NERRS,ioos:station:NOAA.NERRS:wkbfrwq:1,2019-04-01T11:45:00Z,30.4162,-87.8228,2.12,0.8,1111122 
NERRS,ioos:station:NOAA.NERRS:wkbfrwq:1,2019-04-01T12:45:00Z,30.4162,-87.8228,2.16,1.1,1111122 
NERRS,ioos:station:NOAA.NERRS:wkbfrwq:1,2019-04-01T13:45:00Z,30.4162,-87.8228,2.13,0.4,1111122 
NERRS,ioos:station:NOAA.NERRS:wkbfrwq:1,2019-04-01T14:45:00Z,30.4162,-87.8228,2.14,1.1,1111122 
NERRS,ioos:station:NOAA.NERRS:wkbfrwq:1,2019-04-01T15:45:00Z,30.4162,-87.8228,2.21,0.7,1111122 
NERRS,ioos:station:NOAA.NERRS:wkbfrwq:1,2019-04-01T16:45:00Z,30.4162,-87.8228,2.3,1.1,1111122 
NERRS,ioos:station:NOAA.NERRS:wkbfrwq:1,2019-04-01T17:45:00Z,30.4162,-87.8228,2.39,1.5,1111122 
NERRS,ioos:station:NOAA.NERRS:wkbfrwq:1,2019-04-01T18:45:00Z,30.4162,-87.8228,2.43,1.7,1111122 
NERRS,ioos:station:NOAA.NERRS:wkbfrwq:1,2019-04-01T19:45:00Z,30.4162,-87.8228,2.46,1.6,1111122 
NERRS,ioos:station:NOAA.NERRS:wkbfrwq:1,2019-04-01T20:45:00Z,30.4162,-87.8228,2.45,1.4,1111122 
NERRS,ioos:station:NOAA.NERRS:wkbfrwq:1,2019-04-01T21:45:00Z,30.4162,-87.8228,2.46,1.4,1111122 
NERRS,ioos:station:NOAA.NERRS:wkbfrwq:1,2019-04-01T22:45:00Z,30.4162,-87.8228,2.5,1.5,1111122 
NERRS,ioos:station:NOAA.NERRS:wkbfrwq:1,2019-04-01T23:45:00Z,30.4162,-87.8228,2.52,1.5,1111122 
NERRS,ioos:station:NOAA.NERRS:wkbfrwq:1,2019-04-02T00:45:00Z,30.4162,-87.8228,2.55,1.5,1111122 
NERRS,ioos:station:NOAA.NERRS:wkbfrwq:1,2019-04-02T01:45:00Z,30.4162,-87.8228,2.58,1.5,1111122 
NERRS,ioos:station:NOAA.NERRS:wkbfrwq:1,2019-04-02T02:45:00Z,30.4162,-87.8228,2.6,1.6,1111122 
NERRS,ioos:station:NOAA.NERRS:wkbfrwq:1,2019-04-02T03:45:00Z,30.4162,-87.8228,2.6,1.5,1111122 
NERRS,ioos:station:NOAA.NERRS:wkbfrwq:1,2019-04-02T04:45:00Z,30.4162,-87.8228,2.59,1.6,1111122 
NERRS,ioos:station:NOAA.NERRS:wkbfrwq:1,2019-04-02T05:45:00Z,30.4162,-87.8228,2.49,1.1,1111122 
NERRS,ioos:station:NOAA.NERRS:wkbfrwq:1,2019-04-02T06:45:00Z,30.4162,-87.8228,2.37,1.0,1111122 
NERRS,ioos:station:NOAA.NERRS:wkbfrwq:1,2019-04-02T07:45:00Z,30.4162,-87.8228,2.31,0.7,1111122 
NERRS,ioos:station:NOAA.NERRS:wkbfrwq:1,2019-04-02T08:45:00Z,30.4162,-87.8228,2.31,1.1,1111122 
NERRS,ioos:station:NOAA.NERRS:wkbfrwq:1,2019-04-02T09:45:00Z,30.4162,-87.8228,2.3,0.7,1111122 
NERRS,ioos:station:NOAA.NERRS:wkbfrwq:1,2019-04-02T10:45:00Z,30.4162,-87.8228,2.22,0.4,1111122 
NERRS,ioos:station:NOAA.NERRS:wkbfrwq:1,2019-04-02T11:45:00Z,30.4162,-87.8228,2.18,0.5,1111122 
NERRS,ioos:station:NOAA.NERRS:wkbfrwq:1,2019-04-02T12:45:00Z,30.4162,-87.8228,2.17,0.6,1111122 
NERRS,ioos:station:NOAA.NERRS:wkbfrwq:1,2019-04-02T13:45:00Z,30.4162,-87.8228,2.2,0.7,1111122 
NERRS,ioos:station:NOAA.NERRS:wkbfrwq:1,2019-04-02T14:45:00Z,30.4162,-87.8228,2.26,0.8,1111122 
NERRS,ioos:station:NOAA.NERRS:wkbfrwq:1,2019-04-02T15:45:00Z,30.4162,-87.8228,2.3,0.9,1111122 
NERRS,ioos:station:NOAA.NERRS:wkbfrwq:1,2019-04-02T16:45:00Z,30.4162,-87.8228,2.34,1.8,1111122 
NERRS,ioos:station:NOAA.NERRS:wkbfrwq:1,2019-04-02T17:45:00Z,30.4162,-87.8228,2.35,1.6,1111122 
NERRS,ioos:station:NOAA.NERRS:wkbfrwq:1,2019-04-02T18:45:00Z,30.4162,-87.8228,2.38,1.8,1111122 
NERRS,ioos:station:NOAA.NERRS:wkbfrwq:1,2019-04-02T19:45:00Z,30.4162,-87.8228,2.39,1.4,1111122 
NERRS,ioos:station:NOAA.NERRS:wkbfrwq:1,2019-04-02T20:45:00Z,30.4162,-87.8228,2.42,1.6,1111122 
NERRS,ioos:station:NOAA.NERRS:wkbfrwq:1,2019-04-02T21:45:00Z,30.4162,-87.8228,2.46,1.3,1111122 
NERRS,ioos:station:NOAA.NERRS:wkbfrwq:1,2019-04-02T22:45:00Z,30.4162,-87.8228,2.47,0.9,1111122 
NERRS,ioos:station:NOAA.NERRS:wkbfrwq:1,2019-04-02T23:45:00Z,30.4162,-87.8228,2.49,1.3,1111122 
NERRS,ioos:station:NOAA.NERRS:wkbfrwq:1,2019-04-03T00:45:00Z,30.4162,-87.8228,2.52,1.6,1111122 
NERRS,ioos:station:NOAA.NERRS:wkbfrwq:1,2019-04-03T01:45:00Z,30.4162,-87.8228,2.55,2.2,1111122 
NERRS,ioos:station:NOAA.NERRS:wkbfrwq:1,2019-04-03T02:45:00Z,30.4162,-87.8228,2.55,2.3,1111122 
NERRS,ioos:station:NOAA.NERRS:wkbfrwq:1,2019-04-03T03:45:00Z,30.4162,-87.8228,2.52,1.7,1111122 
NERRS,ioos:station:NOAA.NERRS:wkbfrwq:1,2019-04-03T04:45:00Z,30.4162,-87.8228,2.47,1.6,1111122 
NERRS,ioos:station:NOAA.NERRS:wkbfrwq:1,2019-04-03T05:45:00Z,30.4162,-87.8228,2.43,1.2,1111122 
NERRS,ioos:station:NOAA.NERRS:wkbfrwq:1,2019-04-03T06:45:00Z,30.4162,-87.8228,2.37,0.9,1111122 
NERRS,ioos:station:NOAA.NERRS:wkbfrwq:1,2019-04-03T07:45:00Z,30.4162,-87.8228,2.3,0.6,1111122 
NERRS,ioos:station:NOAA.NERRS:wkbfrwq:1,2019-04-03T08:45:00Z,30.4162,-87.8228,2.25,0.4,1111122 
NERRS,ioos:station:NOAA.NERRS:wkbfrwq:1,2019-04-03T09:45:00Z,30.4162,-87.8228,2.23,0.6,1111122 
NERRS,ioos:station:NOAA.NERRS:wkbfrwq:1,2019-04-03T10:45:00Z,30.4162,-87.8228,2.21,0.4,1111122 
NERRS,ioos:station:NOAA.NERRS:wkbfrwq:1,2019-04-03T11:45:00Z,30.4162,-87.8228,2.21,0.6,1111122 
NERRS,ioos:station:NOAA.NERRS:wkbfrwq:1,2019-04-03T12:45:00Z,30.4162,-87.8228,2.21,1.8,1111122 
NERRS,ioos:station:NOAA.NERRS:wkbfrwq:1,2019-04-03T13:45:00Z,30.4162,-87.8228,2.23,1.7,1111122 
NERRS,ioos:station:NOAA.NERRS:wkbfrwq:1,2019-04-03T14:45:00Z,30.4162,-87.8228,2.27,1.9,1111122 
NERRS,ioos:station:NOAA.NERRS:wkbfrwq:1,2019-04-03T15:45:00Z,30.4162,-87.8228,2.34,1.5,1111122 
NERRS,ioos:station:NOAA.NERRS:wkbfrwq:1,2019-04-03T16:45:00Z,30.4162,-87.8228,2.39,1.6,1111122 
NERRS,ioos:station:NOAA.NERRS:wkbfrwq:1,2019-04-03T17:45:00Z,30.4162,-87.8228,2.42,1.7,1111122 
NERRS,ioos:station:NOAA.NERRS:wkbfrwq:1,2019-04-03T18:45:00Z,30.4162,-87.8228,2.44,1.8,1111122 
NERRS,ioos:station:NOAA.NERRS:wkbfrwq:1,2019-04-03T19:45:00Z,30.4162,-87.8228,2.41,1.7,1111122 
NERRS,ioos:station:NOAA.NERRS:wkbfrwq:1,2019-04-03T20:45:00Z,30.4162,-87.8228,2.37,1.5,1111122 
NERRS,ioos:station:NOAA.NERRS:wkbfrwq:1,2019-04-03T21:45:00Z,30.4162,-87.8228,2.33,1.7,1111122 
NERRS,ioos:station:NOAA.NERRS:wkbfrwq:1,2019-04-03T22:45:00Z,30.4162,-87.8228,2.33,1.7,1111122 
NERRS,ioos:station:NOAA.NERRS:wkbfrwq:1,2019-04-03T23:45:00Z,30.4162,-87.8228,2.37,1.6,1111122 
NERRS,ioos:station:NOAA.NERRS:wkbfrwq:1,2019-04-04T00:45:00Z,30.4162,-87.8228,2.41,1.4,1111122 
NERRS,ioos:station:NOAA.NERRS:wkbfrwq:1,2019-04-04T01:45:00Z,30.4162,-87.8228,2.47,1.7,1111122 
NERRS,ioos:station:NOAA.NERRS:wkbfrwq:1,2019-04-04T02:45:00Z,30.4162,-87.8228,2.49,1.9,1111122 
NERRS,ioos:station:NOAA.NERRS:wkbfrwq:1,2019-04-04T03:45:00Z,30.4162,-87.8228,2.47,1.8,1111122 
NERRS,ioos:station:NOAA.NERRS:wkbfrwq:1,2019-04-04T04:45:00Z,30.4162,-87.8228,2.48,1.9,1111122 
NERRS,ioos:station:NOAA.NERRS:wkbfrwq:1,2019-04-04T05:45:00Z,30.4162,-87.8228,2.46,2.1,1111122 
NERRS,ioos:station:NOAA.NERRS:wkbfrwq:1,2019-04-04T06:45:00Z,30.4162,-87.8228,2.46,2.1,1111122 
NERRS,ioos:station:NOAA.NERRS:wkbfrwq:1,2019-04-04T07:45:00Z,30.4162,-87.8228,2.43,2.0,1111122 
NERRS,ioos:station:NOAA.NERRS:wkbfrwq:1,2019-04-04T08:45:00Z,30.4162,-87.8228,2.38,0.6,1111122 
NERRS,ioos:station:NOAA.NERRS:wkbfrwq:1,2019-04-04T09:45:00Z,30.4162,-87.8228,2.32,0.8,1111122 
NERRS,ioos:station:NOAA.NERRS:wkbfrwq:1,2019-04-04T10:45:00Z,30.4162,-87.8228,2.26,0.8,1111122 
NERRS,ioos:station:NOAA.NERRS:wkbfrwq:1,2019-04-04T11:45:00Z,30.4162,-87.8228,2.25,0.4,1111122 
NERRS,ioos:station:NOAA.NERRS:wkbfrwq:1,2019-04-04T12:45:00Z,30.4162,-87.8228,2.23,1.6,1111122 
NERRS,ioos:station:NOAA.NERRS:wkbfrwq:1,2019-04-04T13:45:00Z,30.4162,-87.8228,2.27,1.7,1111122 
NERRS,ioos:station:NOAA.NERRS:wkbfrwq:1,2019-04-04T14:45:00Z,30.4162,-87.8228,2.34,1.4,1111122 
NERRS,ioos:station:NOAA.NERRS:wkbfrwq:1,2019-04-04T15:45:00Z,30.4162,-87.8228,2.4,1.5,1111122 
NERRS,ioos:station:NOAA.NERRS:wkbfrwq:1,2019-04-04T16:45:00Z,30.4162,-87.8228,2.5,1.4,1111122 
NERRS,ioos:station:NOAA.NERRS:wkbfrwq:1,2019-04-04T17:45:00Z,30.4162,-87.8228,2.54,1.4,1111122 
NERRS,ioos:station:NOAA.NERRS:wkbfrwq:1,2019-04-04T18:45:00Z,30.4162,-87.8228,2.5,1.0,1111122 
NERRS,ioos:station:NOAA.NERRS:wkbfrwq:1,2019-04-04T19:45:00Z,30.4162,-87.8228,2.4,1.1,1111122 
NERRS,ioos:station:NOAA.NERRS:wkbfrwq:1,2019-04-04T20:45:00Z,30.4162,-87.8228,2.34,1.3,1111122 
NERRS,ioos:station:NOAA.NERRS:wkbfrwq:1,2019-04-04T21:45:00Z,30.4162,-87.8228,2.31,1.0,1111122 
NERRS,ioos:station:NOAA.NERRS:wkbfrwq:1,2019-04-04T22:45:00Z,30.4162,-87.8228,2.25,0.6,1111122 
NERRS,ioos:station:NOAA.NERRS:wkbfrwq:1,2019-04-04T23:45:00Z,30.4162,-87.8228,2.18,0.7,1111122 
NERRS,ioos:station:NOAA.NERRS:wkbfrwq:1,2019-04-05T00:45:00Z,30.4162,-87.8228,2.06,0.4,1111122 
NERRS,ioos:station:NOAA.NERRS:wkbfrwq:1,2019-04-05T01:45:00Z,30.4162,-87.8228,2.17,0.9,1111122 
NERRS,ioos:station:NOAA.NERRS:wkbfrwq:1,2019-04-05T02:45:00Z,30.4162,-87.8228,2.38,1.1,1111122 
NERRS,ioos:station:NOAA.NERRS:wkbfrwq:1,2019-04-05T03:45:00Z,30.4162,-87.8228,2.57,1.1,1111122 
NERRS,ioos:station:NOAA.NERRS:wkbfrwq:1,2019-04-05T04:45:00Z,30.4162,-87.8228,2.52,1.1,1111122 
NERRS,ioos:station:NOAA.NERRS:wkbfrwq:1,2019-04-05T05:45:00Z,30.4162,-87.8228,2.38,0.8,1111122 
NERRS,ioos:station:NOAA.NERRS:wkbfrwq:1,2019-04-05T06:45:00Z,30.4162,-87.8228,2.43,0.8,1111122 
NERRS,ioos:station:NOAA.NERRS:wkbfrwq:1,2019-04-05T07:45:00Z,30.4162,-87.8228,2.52,0.9,1111122 
NERRS,ioos:station:NOAA.NERRS:wkbfrwq:1,2019-04-05T08:45:00Z,30.4162,-87.8228,2.53,1.0,1111122 
NERRS,ioos:station:NOAA.NERRS:wkbfrwq:1,2019-04-05T09:45:00Z,30.4162,-87.8228,2.44,0.8,1111122 
NERRS,ioos:station:NOAA.NERRS:wkbfrwq:1,2019-04-05T10:45:00Z,30.4162,-87.8228,2.46,0.7,1111122 
NERRS,ioos:station:NOAA.NERRS:wkbfrwq:1,2019-04-05T11:45:00Z,30.4162,-87.8228,2.43,0.7,1111122 
NERRS,ioos:station:NOAA.NERRS:wkbfrwq:1,2019-04-05T12:45:00Z,30.4162,-87.8228,2.43,0.7,1111122 
NERRS,ioos:station:NOAA.NERRS:wkbfrwq:1,2019-04-05T13:45:00Z,30.4162,-87.8228,2.45,0.7,1111122 
NERRS,ioos:station:NOAA.NERRS:wkbfrwq:1,2019-04-05T14:45:00Z,30.4162,-87.8228,2.47,0.7,1111122 
NERRS,ioos:station:NOAA.NERRS:wkbfrwq:1,2019-04-05T15:45:00Z,30.4162,-87.8228,2.49,0.7,1111122 
NERRS,ioos:station:NOAA.NERRS:wkbfrwq:1,2019-04-05T16:45:00Z,30.4162,-87.8228,2.48,0.6,1111122 
NERRS,ioos:station:NOAA.NERRS:wkbfrwq:1,2019-04-05T17:45:00Z,30.4162,-87.8228,2.49,0.7,1111122 
NERRS,ioos:station:NOAA.NERRS:wkbfrwq:1,2019-04-05T18:45:00Z,30.4162,-87.8228,2.47,0.6,1111122 
NERRS,ioos:station:NOAA.NERRS:wkbfrwq:1,2019-04-05T19:45:00Z,30.4162,-87.8228,2.43,0.5,1111122 
NERRS,ioos:station:NOAA.NERRS:wkbfrwq:1,2019-04-05T20:45:00Z,30.4162,-87.8228,2.38,0.5,1111122 
NERRS,ioos:station:NOAA.NERRS:wkbfrwq:1,2019-04-05T21:45:00Z,30.4162,-87.8228,2.33,0.5,1111122 
NERRS,ioos:station:NOAA.NERRS:wkbfrwq:1,2019-04-05T22:45:00Z,30.4162,-87.8228,2.3,0.4,1111122 
NERRS,ioos:station:NOAA.NERRS:wkbfrwq:1,2019-04-05T23:45:00Z,30.4162,-87.8228,2.26,0.4,1111122 
NERRS,ioos:station:NOAA.NERRS:wkbfrwq:1,2019-04-06T00:45:00Z,30.4162,-87.8228,2.26,0.4,1111122 
NERRS,ioos:station:NOAA.NERRS:wkbfrwq:1,2019-04-06T01:45:00Z,30.4162,-87.8228,2.32,0.4,1111122 
NERRS,ioos:station:NOAA.NERRS:wkbfrwq:1,2019-04-06T02:45:00Z,30.4162,-87.8228,2.4,0.5,1111122 
NERRS,ioos:station:NOAA.NERRS:wkbfrwq:1,2019-04-06T03:45:00Z,30.4162,-87.8228,2.47,0.6,1111122 
NERRS,ioos:station:NOAA.NERRS:wkbfrwq:1,2019-04-06T04:45:00Z,30.4162,-87.8228,2.45,0.5,1111122 
NERRS,ioos:station:NOAA.NERRS:wkbfrwq:1,2019-04-06T05:45:00Z,30.4162,-87.8228,2.48,0.6,1111122 
NERRS,ioos:station:NOAA.NERRS:wkbfrwq:1,2019-04-06T06:45:00Z,30.4162,-87.8228,2.54,0.8,1111122 
NERRS,ioos:station:NOAA.NERRS:wkbfrwq:1,2019-04-06T07:45:00Z,30.4162,-87.8228,2.57,0.9,1111122 
NERRS,ioos:station:NOAA.NERRS:wkbfrwq:1,2019-04-06T08:45:00Z,30.4162,-87.8228,2.55,0.7,1111122 
NERRS,ioos:station:NOAA.NERRS:wkbfrwq:1,2019-04-06T09:45:00Z,30.4162,-87.8228,2.5,0.4,1111122 
NERRS,ioos:station:NOAA.NERRS:wkbfrwq:1,2019-04-06T10:45:00Z,30.4162,-87.8228,2.47,0.4,1111122 
NERRS,ioos:station:NOAA.NERRS:wkbfrwq:1,2019-04-06T11:45:00Z,30.4162,-87.8228,2.46,0.3,1111122 
NERRS,ioos:station:NOAA.NERRS:wkbfrwq:1,2019-04-06T12:45:00Z,30.4162,-87.8228,2.45,0.3,1111122 
NERRS,ioos:station:NOAA.NERRS:wkbfrwq:1,2019-04-06T13:45:00Z,30.4162,-87.8228,2.45,0.3,1111122 
NERRS,ioos:station:NOAA.NERRS:wkbfrwq:1,2019-04-06T14:45:00Z,30.4162,-87.8228,2.49,0.4,1111122 
NERRS,ioos:station:NOAA.NERRS:wkbfrwq:1,2019-04-06T15:45:00Z,30.4162,-87.8228,2.52,0.6,1111122 
NERRS,ioos:station:NOAA.NERRS:wkbfrwq:1,2019-04-06T16:45:00Z,30.4162,-87.8228,2.51,0.4,1111122 
NERRS,ioos:station:NOAA.NERRS:wkbfrwq:1,2019-04-06T17:45:00Z,30.4162,-87.8228,2.5,0.3,1111122 
NERRS,ioos:station:NOAA.NERRS:wkbfrwq:1,2019-04-06T18:45:00Z,30.4162,-87.8228,2.48,0.4,1111122 
NERRS,ioos:station:NOAA.NERRS:wkbfrwq:1,2019-04-06T19:45:00Z,30.4162,-87.8228,2.44,0.3,1111122 
NERRS,ioos:station:NOAA.NERRS:wkbfrwq:1,2019-04-06T20:45:00Z,30.4162,-87.8228,2.38,0.2,1111122 
NERRS,ioos:station:NOAA.NERRS:wkbfrwq:1,2019-04-06T21:45:00Z,30.4162,-87.8228,2.33,0.2,1111122 
NERRS,ioos:station:NOAA.NERRS:wkbfrwq:1,2019-04-06T22:45:00Z,30.4162,-87.8228,2.28,0.2,1111122 
NERRS,ioos:station:NOAA.NERRS:wkbfrwq:1,2019-04-06T23:45:00Z,30.4162,-87.8228,2.22,0.2,1111122 
NERRS,ioos:station:NOAA.NERRS:wkbfrwq:1,2019-04-07T00:45:00Z,30.4162,-87.8228,2.18,0.1,1111122 
NERRS,ioos:station:NOAA.NERRS:wkbfrwq:1,2019-04-07T01:45:00Z,30.4162,-87.8228,2.17,0.1,1111122 
NERRS,ioos:station:NOAA.NERRS:wkbfrwq:1,2019-04-07T02:45:00Z,30.4162,-87.8228,2.22,0.1,1111122 
NERRS,ioos:station:NOAA.NERRS:wkbfrwq:1,2019-04-07T03:45:00Z,30.4162,-87.8228,2.26,0.2,1111122 
NERRS,ioos:station:NOAA.NERRS:wkbfrwq:1,2019-04-07T04:45:00Z,30.4162,-87.8228,2.28,0.2,1111122 
NERRS,ioos:station:NOAA.NERRS:wkbfrwq:1,2019-04-07T05:45:00Z,30.4162,-87.8228,2.28,0.1,1111122 
NERRS,ioos:station:NOAA.NERRS:wkbfrwq:1,2019-04-07T06:45:00Z,30.4162,-87.8228,2.35,0.2,1111122 
NERRS,ioos:station:NOAA.NERRS:wkbfrwq:1,2019-04-07T07:45:00Z,30.4162,-87.8228,2.42,0.2,1111122 
NERRS,ioos:station:NOAA.NERRS:wkbfrwq:1,2019-04-07T08:45:00Z,30.4162,-87.8228,2.47,0.2,1111122 
NERRS,ioos:station:NOAA.NERRS:wkbfrwq:1,2019-04-07T09:45:00Z,30.4162,-87.8228,2.47,0.3,1111122 
NERRS,ioos:station:NOAA.NERRS:wkbfrwq:1,2019-04-07T10:45:00Z,30.4162,-87.8228,2.47,0.2,1111122 
NERRS,ioos:station:NOAA.NERRS:wkbfrwq:1,2019-04-07T11:45:00Z,30.4162,-87.8228,2.48,0.3,1111122 
NERRS,ioos:station:NOAA.NERRS:wkbfrwq:1,2019-04-07T12:45:00Z,30.4162,-87.8228,2.5,0.2,1111122 
NERRS,ioos:station:NOAA.NERRS:wkbfrwq:1,2019-04-07T13:45:00Z,30.4162,-87.8228,2.51,0.2,1111122 
NERRS,ioos:station:NOAA.NERRS:wkbfrwq:1,2019-04-07T14:45:00Z,30.4162,-87.8228,2.55,0.3,1111122 
NERRS,ioos:station:NOAA.NERRS:wkbfrwq:1,2019-04-07T15:45:00Z,30.4162,-87.8228,2.57,0.3,1111122 
NERRS,ioos:station:NOAA.NERRS:wkbfrwq:1,2019-04-07T16:45:00Z,30.4162,-87.8228,2.59,0.4,1111122 
NERRS,ioos:station:NOAA.NERRS:wkbfrwq:1,2019-04-07T17:45:00Z,30.4162,-87.8228,2.55,0.2,1111122 
NERRS,ioos:station:NOAA.NERRS:wkbfrwq:1,2019-04-07T18:45:00Z,30.4162,-87.8228,2.53,0.2,1111122 
NERRS,ioos:station:NOAA.NERRS:wkbfrwq:1,2019-04-07T19:45:00Z,30.4162,-87.8228,2.55,0.2,1111122 
NERRS,ioos:station:NOAA.NERRS:wkbfrwq:1,2019-04-07T20:45:00Z,30.4162,-87.8228,2.54,0.3,1111122 
NERRS,ioos:station:NOAA.NERRS:wkbfrwq:1,2019-04-07T21:45:00Z,30.4162,-87.8228,2.44,0.2,1111122 
NERRS,ioos:station:NOAA.NERRS:wkbfrwq:1,2019-04-07T22:45:00Z,30.4162,-87.8228,2.35,0.1,1111122 
NERRS,ioos:station:NOAA.NERRS:wkbfrwq:1,2019-04-07T23:45:00Z,30.4162,-87.8228,2.28,0.1,1111122 
NERRS,ioos:station:NOAA.NERRS:wkbfrwq:1,2019-04-08T00:45:00Z,30.4162,-87.8228,2.26,0.1,1111122 
NERRS,ioos:station:NOAA.NERRS:wkbfrwq:1,2019-04-08T01:45:00Z,30.4162,-87.8228,2.25,0.1,1111122 
NERRS,ioos:station:NOAA.NERRS:wkbfrwq:1,2019-04-08T02:45:00Z,30.4162,-87.8228,2.21,0.1,1111122 
NERRS,ioos:station:NOAA.NERRS:wkbfrwq:1,2019-04-08T03:45:00Z,30.4162,-87.8228,2.17,0.1,1111122 
NERRS,ioos:station:NOAA.NERRS:wkbfrwq:1,2019-04-08T04:45:00Z,30.4162,-87.8228,2.2,0.1,1111122 
NERRS,ioos:station:NOAA.NERRS:wkbfrwq:1,2019-04-08T05:45:00Z,30.4162,-87.8228,2.28,0.1,1111122 
NERRS,ioos:station:NOAA.NERRS:wkbfrwq:1,2019-04-08T06:45:00Z,30.4162,-87.8228,2.39,0.8,1111122 
NERRS,ioos:station:NOAA.NERRS:wkbfrwq:1,2019-04-08T07:45:00Z,30.4162,-87.8228,2.38,0.4,1111122 
NERRS,ioos:station:NOAA.NERRS:wkbfrwq:1,2019-04-08T08:45:00Z,30.4162,-87.8228,2.33,0.1,1111122 
NERRS,ioos:station:NOAA.NERRS:wkbfrwq:1,2019-04-08T09:45:00Z,30.4162,-87.8228,2.34,0.1,1111122 
NERRS,ioos:station:NOAA.NERRS:wkbfrwq:1,2019-04-08T10:45:00Z,30.4162,-87.8228,2.38,0.4,1111122 
NERRS,ioos:station:NOAA.NERRS:wkbfrwq:1,2019-04-08T11:45:00Z,30.4162,-87.8228,2.46,0.6,1111122 
NERRS,ioos:station:NOAA.NERRS:wkbfrwq:1,2019-04-08T12:45:00Z,30.4162,-87.8228,2.56,0.6,1111122 
NERRS,ioos:station:NOAA.NERRS:wkbfrwq:1,2019-04-08T13:45:00Z,30.4162,-87.8228,2.62,1.1,1111122 
NERRS,ioos:station:NOAA.NERRS:wkbfrwq:1,2019-04-08T14:45:00Z,30.4162,-87.8228,2.68,1.5,1111122 
NERRS,ioos:station:NOAA.NERRS:wkbfrwq:1,2019-04-08T15:45:00Z,30.4162,-87.8228,2.56,0.8,1111122 
NERRS,ioos:station:NOAA.NERRS:wkbfrwq:1,2019-04-08T16:45:00Z,30.4162,-87.8228,2.63,0.5,1111122 
NERRS,ioos:station:NOAA.NERRS:wkbfrwq:1,2019-04-08T17:45:00Z,30.4162,-87.8228,2.71,1.5,1111122 
NERRS,ioos:station:NOAA.NERRS:wkbfrwq:1,2019-04-08T18:45:00Z,30.4162,-87.8228,2.72,1.5,1111122 
NERRS,ioos:station:NOAA.NERRS:wkbfrwq:1,2019-04-08T19:45:00Z,30.4162,-87.8228,2.58,0.8,1111122 
NERRS,ioos:station:NOAA.NERRS:wkbfrwq:1,2019-04-08T20:45:00Z,30.4162,-87.8228,2.45,0.3,1111122 
NERRS,ioos:station:NOAA.NERRS:wkbfrwq:1,2019-04-08T21:45:00Z,30.4162,-87.8228,2.41,0.2,1111122 
NERRS,ioos:station:NOAA.NERRS:wkbfrwq:1,2019-04-08T22:45:00Z,30.4162,-87.8228,2.39,0.2,1111122 
NERRS,ioos:station:NOAA.NERRS:wkbfrwq:1,2019-04-08T23:45:00Z,30.4162,-87.8228,2.33,0.1,1111122 
NERRS,ioos:station:NOAA.NERRS:wkbfrwq:1,2019-04-09T00:45:00Z,30.4162,-87.8228,2.33,0.1,1111122 
NERRS,ioos:station:NOAA.NERRS:wkbfrwq:1,2019-04-09T01:45:00Z,30.4162,-87.8228,2.33,0.1,1111122 
NERRS,ioos:station:NOAA.NERRS:wkbfrwq:1,2019-04-09T02:45:00Z,30.4162,-87.8228,2.26,0.1,1111122 
NERRS,ioos:station:NOAA.NERRS:wkbfrwq:1,2019-04-09T03:45:00Z,30.4162,-87.8228,2.27,0.1,1111122 
NERRS,ioos:station:NOAA.NERRS:wkbfrwq:1,2019-04-09T04:45:00Z,30.4162,-87.8228,2.25,0.1,1111122 
NERRS,ioos:station:NOAA.NERRS:wkbfrwq:1,2019-04-09T05:45:00Z,30.4162,-87.8228,2.27,0.1,1111122 
NERRS,ioos:station:NOAA.NERRS:wkbfrwq:1,2019-04-09T06:45:00Z,30.4162,-87.8228,2.34,0.1,1111122 
NERRS,ioos:station:NOAA.NERRS:wkbfrwq:1,2019-04-09T07:45:00Z,30.4162,-87.8228,2.34,0.1,1111122 
NERRS,ioos:station:NOAA.NERRS:wkbfrwq:1,2019-04-09T08:45:00Z,30.4162,-87.8228,2.35,0.1,1111122 
NERRS,ioos:station:NOAA.NERRS:wkbfrwq:1,2019-04-09T09:45:00Z,30.4162,-87.8228,2.37,0.1,1111122 
NERRS,ioos:station:NOAA.NERRS:wkbfrwq:1,2019-04-09T10:45:00Z,30.4162,-87.8228,2.44,0.3,1111122 
NERRS,ioos:station:NOAA.NERRS:wkbfrwq:1,2019-04-09T11:45:00Z,30.4162,-87.8228,2.53,0.5,1111122 
NERRS,ioos:station:NOAA.NERRS:wkbfrwq:1,2019-04-09T12:45:00Z,30.4162,-87.8228,2.51,0.8,1111122 
NERRS,ioos:station:NOAA.NERRS:wkbfrwq:1,2019-04-09T13:45:00Z,30.4162,-87.8228,2.46,0.2,1111122 
NERRS,ioos:station:NOAA.NERRS:wkbfrwq:1,2019-04-09T14:45:00Z,30.4162,-87.8228,2.45,0.1,1111122 
NERRS,ioos:station:NOAA.NERRS:wkbfrwq:1,2019-04-09T15:45:00Z,30.4162,-87.8228,2.5,1.0,1111122 
NERRS,ioos:station:NOAA.NERRS:wkbfrwq:1,2019-04-09T16:45:00Z,30.4162,-87.8228,2.56,1.4,1111122 
NERRS,ioos:station:NOAA.NERRS:wkbfrwq:1,2019-04-09T17:45:00Z,30.4162,-87.8228,2.57,1.4,1111122 
NERRS,ioos:station:NOAA.NERRS:wkbfrwq:1,2019-04-09T18:45:00Z,30.4162,-87.8228,2.55,0.8,1111122 
NERRS,ioos:station:NOAA.NERRS:wkbfrwq:1,2019-04-09T19:45:00Z,30.4162,-87.8228,2.5,0.3,1111122 
NERRS,ioos:station:NOAA.NERRS:wkbfrwq:1,2019-04-09T20:45:00Z,30.4162,-87.8228,2.46,0.4,1111122 
NERRS,ioos:station:NOAA.NERRS:wkbfrwq:1,2019-04-09T21:45:00Z,30.4162,-87.8228,2.48,0.8,1111122 
NERRS,ioos:station:NOAA.NERRS:wkbfrwq:1,2019-04-09T22:45:00Z,30.4162,-87.8228,2.41,0.2,1111122 
NERRS,ioos:station:NOAA.NERRS:wkbfrwq:1,2019-04-09T23:45:00Z,30.4162,-87.8228,2.3,0.3,1111122 
NERRS,ioos:station:NOAA.NERRS:wkbfrwq:1,2019-04-10T00:45:00Z,30.4162,-87.8228,2.24,0.3,1111122 
NERRS,ioos:station:NOAA.NERRS:wkbfrwq:1,2019-04-10T01:45:00Z,30.4162,-87.8228,2.19,0.2,1111122 
NERRS,ioos:station:NOAA.NERRS:wkbfrwq:1,2019-04-10T02:45:00Z,30.4162,-87.8228,2.14,0.1,1111122 
NERRS,ioos:station:NOAA.NERRS:wkbfrwq:1,2019-04-10T03:45:00Z,30.4162,-87.8228,2.12,0.1,1111122 
NERRS,ioos:station:NOAA.NERRS:wkbfrwq:1,2019-04-10T04:45:00Z,30.4162,-87.8228,2.08,0.1,1111122 
NERRS,ioos:station:NOAA.NERRS:wkbfrwq:1,2019-04-10T05:45:00Z,30.4162,-87.8228,2.07,0.1,1111122 
NERRS,ioos:station:NOAA.NERRS:wkbfrwq:1,2019-04-10T06:45:00Z,30.4162,-87.8228,2.08,0.2,1111122 
NERRS,ioos:station:NOAA.NERRS:wkbfrwq:1,2019-04-10T07:45:00Z,30.4162,-87.8228,2.1,0.4,1111122 
NERRS,ioos:station:NOAA.NERRS:wkbfrwq:1,2019-04-10T08:45:00Z,30.4162,-87.8228,2.14,0.7,1111122 
NERRS,ioos:station:NOAA.NERRS:wkbfrwq:1,2019-04-10T09:45:00Z,30.4162,-87.8228,2.17,0.6,1111122 
NERRS,ioos:station:NOAA.NERRS:wkbfrwq:1,2019-04-10T10:45:00Z,30.4162,-87.8228,2.23,0.8,1111122 
NERRS,ioos:station:NOAA.NERRS:wkbfrwq:1,2019-04-10T11:45:00Z,30.4162,-87.8228,2.26,1.0,1111122 
NERRS,ioos:station:NOAA.NERRS:wkbfrwq:1,2019-04-10T12:45:00Z,30.4162,-87.8228,2.31,1.5,1111122 
NERRS,ioos:station:NOAA.NERRS:wkbfrwq:1,2019-04-10T13:45:00Z,30.4162,-87.8228,2.39,1.4,1111122 
NERRS,ioos:station:NOAA.NERRS:wkbfrwq:1,2019-04-10T14:45:00Z,30.4162,-87.8228,2.44,1.9,1111122 
NERRS,ioos:station:NOAA.NERRS:wkbfrwq:1,2019-04-10T15:45:00Z,30.4162,-87.8228,2.48,2.5,1111122 
NERRS,ioos:station:NOAA.NERRS:wkbfrwq:1,2019-04-10T16:45:00Z,30.4162,-87.8228,2.51,2.2,1111122 
NERRS,ioos:station:NOAA.NERRS:wkbfrwq:1,2019-04-10T17:45:00Z,30.4162,-87.8228,2.55,2.4,1111122 
NERRS,ioos:station:NOAA.NERRS:wkbfrwq:1,2019-04-10T18:45:00Z,30.4162,-87.8228,2.57,2.3,1111122 
NERRS,ioos:station:NOAA.NERRS:wkbfrwq:1,2019-04-10T19:45:00Z,30.4162,-87.8228,2.57,2.2,1111122 
NERRS,ioos:station:NOAA.NERRS:wkbfrwq:1,2019-04-10T20:45:00Z,30.4162,-87.8228,2.54,1.4,1111122 
NERRS,ioos:station:NOAA.NERRS:wkbfrwq:1,2019-04-10T21:45:00Z,30.4162,-87.8228,2.5,2.2,1111122 
NERRS,ioos:station:NOAA.NERRS:wkbfrwq:1,2019-04-10T22:45:00Z,30.4162,-87.8228,2.44,1.7,1111122 
NERRS,ioos:station:NOAA.NERRS:wkbfrwq:1,2019-04-10T23:45:00Z,30.4162,-87.8228,2.37,1.5,1111122 
NERRS,ioos:station:NOAA.NERRS:wkbfrwq:1,2019-04-11T00:45:00Z,30.4162,-87.8228,2.3,1.3,1111122 
NERRS,ioos:station:NOAA.NERRS:wkbfrwq:1,2019-04-11T01:45:00Z,30.4162,-87.8228,2.25,1.0,1111122 
NERRS,ioos:station:NOAA.NERRS:wkbfrwq:1,2019-04-11T02:45:00Z,30.4162,-87.8228,2.19,0.7,1111122 
NERRS,ioos:station:NOAA.NERRS:wkbfrwq:1,2019-04-11T03:45:00Z,30.4162,-87.8228,2.12,0.5,1111122 
NERRS,ioos:station:NOAA.NERRS:wkbfrwq:1,2019-04-11T04:45:00Z,30.4162,-87.8228,2.06,0.3,1111122 
NERRS,ioos:station:NOAA.NERRS:wkbfrwq:1,2019-04-11T05:45:00Z,30.4162,-87.8228,2.03,0.3,1111122 
NERRS,ioos:station:NOAA.NERRS:wkbfrwq:1,2019-04-11T06:45:00Z,30.4162,-87.8228,2.0,0.2,1111122 
NERRS,ioos:station:NOAA.NERRS:wkbfrwq:1,2019-04-11T07:45:00Z,30.4162,-87.8228,1.99,0.3,1111122 
NERRS,ioos:station:NOAA.NERRS:wkbfrwq:1,2019-04-11T08:45:00Z,30.4162,-87.8228,2.03,1.4,1111122 